Inquirer Daily News

Weather

Get conditions and forecasts for any City, State, ZIP code or Country:  
Trenton, NJ
on Wednesday, December 12, 2012

Wednesday
Previous Day Next Day
Daily Summary
 ActualAverageRecord
Temperature
Mean Temperature °F 36°F  
Max Temperature 44°F 44°F 67°F (1931)
Min Temperature 31°F 29°F 4°F (1988)
Degree Days
Heating Degree Days 27 29  
Month to date heating degree days 240 321  
Since 1 July heating degree days 1247 1297  
Cooling Degree Days 0 0  
Month to date cooling degree days 0 0  
Year to date cooling degree days 1234 965  
Moisture
Dew Point 26°F   
Average Humidity 64    
Maximum Humidity 78    
Minimum Humidity 49    
Precipitation
Precipitation 0.00 in 0.15 in 1.62 in (1894)
Month to date precipitation 0.83 1.65  
Year to date precipitation 34.06 44.39  
Wind
Wind Speed 4 mph   
Max Wind Speed 12 mph   
Max Gust Speed 15 mph   
Visibility 10 miles   
Events     

Key: T is trace of precipitation, MM is missing value
Source: NWS Daily Summary
Time(EST)TemperatureDew PointHumidity Pressure Visibility Wind DirectionWind SpeedGust SpeedPrecipitationEvents Conditions
12:53 AM 36.0°F 26.1°F 67% 30.19 in 10.0 miles Calm Calm - N/A   Clear
1:53 AM 33.1°F 26.1°F 75% 30.21 in 10.0 miles NNW 4.6 mph - N/A   Clear
2:53 AM 33.1°F 27.0°F 78% 30.24 in 10.0 miles NNW 3.5 mph - N/A   Clear
3:53 AM 32.0°F 27.0°F 82% 30.27 in 10.0 miles Calm Calm - N/A   Clear
4:53 AM 33.1°F 26.1°F 75% 30.29 in 10.0 miles North 3.5 mph - N/A   Clear
5:53 AM 33.1°F 26.1°F 75% 30.31 in 10.0 miles North 4.6 mph - N/A   Clear
6:53 AM 32.0°F 27.0°F 82% 30.32 in 10.0 miles Calm Calm - N/A   Clear
7:53 AM 32.0°F 27.0°F 82% 30.33 in 10.0 miles Calm Calm - N/A   Clear
8:53 AM 37.0°F 28.0°F 70% 30.36 in 10.0 miles North 3.5 mph - N/A   Clear
9:53 AM 39.9°F 28.0°F 63% 30.37 in 10.0 miles Calm Calm - N/A   Clear
10:53 AM 41.0°F 27.0°F 57% 30.39 in 10.0 miles Calm Calm - N/A   Clear
11:53 AM 43.0°F 25.0°F 49% 30.37 in 10.0 miles North 9.2 mph - N/A   Clear
12:53 PM 43.0°F 25.0°F 49% 30.35 in 10.0 miles NNE 6.9 mph - N/A   Clear
1:53 PM 42.1°F 24.1°F 49% 30.36 in 10.0 miles Variable 3.5 mph - N/A   Clear
2:53 PM 42.1°F 24.1°F 49% 30.36 in 10.0 miles NNW 5.8 mph - N/A   Clear
3:53 PM 42.1°F 25.0°F 51% 30.36 in 10.0 miles North 4.6 mph - N/A   Clear
4:53 PM 39.9°F 25.0°F 55% 30.37 in 10.0 miles North 3.5 mph - N/A   Clear
5:53 PM 37.9°F 26.1°F 62% 30.38 in 10.0 miles North 4.6 mph - N/A   Clear
6:53 PM 37.0°F 25.0°F 62% 30.38 in 10.0 miles North 4.6 mph - N/A   Clear
7:53 PM 37.0°F 25.0°F 62% 30.40 in 10.0 miles North 3.5 mph - N/A   Clear
8:53 PM 36.0°F 25.0°F 64% 30.41 in 10.0 miles North 4.6 mph - N/A   Clear
9:53 PM 36.0°F 25.0°F 64% 30.40 in 10.0 miles North 4.6 mph - N/A   Clear
10:53 PM 35.1°F 25.0°F 67% 30.41 in 10.0 miles North 5.8 mph - N/A   Clear
11:53 PM 36.0°F 24.1°F 62% 30.41 in 10.0 miles North 5.8 mph - N/A   Clear
Astronomy
Sunrise:07:12 AM (EST) Moon Rise:06:14 AM (EST)12/12
Sunset:04:33 PM (EST) Moon Set:04:08 PM (EST)12/12
Moon Phase
Dec. 12 Dec. 13 Dec. 20 Dec. 28 Jan. 04

Copyright © 2014 The Weather Underground, Inc.